Lancaster, OH

7:32 PM EDT on April 25, 2017 (GMT -0400)
Fairfield County

Weather History for KLHQ - April, 2012

Change the Weather History Date:

Saturday, April 7, 2012

  Actual Average Record
Temperature  
Mean Temperature 44 °F -  
Max Temperature 64 °F 55 °F 85 °F (1954)
Min Temperature 24 °F 32 °F 15 °F (1982)
Degree Days  
Heating Degree Days 22    
Moisture  
Dew Point 22 °F    
Average Humidity 52    
Maximum Humidity 92    
Minimum Humidity 14    
Precipitation  
Precipitation 0.00 in - - ()
Sea Level Pressure  
Sea Level Pressure 30.27 in    
Wind  
Wind Speed 2 mph (NNE)    
Max Wind Speed 8 mph    
Max Gust Speed -    
Visibility 10 miles    
Events      
Averages and records for this station are not official NWS values.
T = Trace of Precipitation, MM = Missing Value Source: NWS Daily Summary

Daily Weather History Graph

Daily Weather History Graph

Search for Another Location

Airport or City:

Trip Planner

Search our weather history database for the weather conditions in past years. The results will help you decide how hot, cold, wet, or windy it might be!

Date:

Astronomy

Apr. 07, 2012 Rise Set
Actual Time 7:04 AM EDT 8:01 PM EDT
Civil Twilight 6:37 AM EDT 8:28 PM EDT
Nautical Twilight 6:04 AM EDT 9:01 PM EDT
Astronomical Twilight 5:30 AM EDT 9:35 PM EDT
Moon 9:33 PM EDT (4/7) 7:15 AM EDT (4/7)
Length of Visible Light 13h 51m
Length of Day
12h 56m
Full, 99% of the Moon is Illuminated
Apr 7
Full
Apr 13
Last Quarter
Apr 21
New
Apr 29
First Quarter
May 5
Full

Hourly Weather History & Observations

Time (EDT) Temp. Windchill Dew Point Humidity Pressure Visibility Wind Dir Wind Speed Gust Speed Precip Events Conditions
12:53 AM 33.1 °F - 26.1 °F 75% 30.26 in 10.0 mi Calm Calm - N/A   Clear
1:53 AM 30.0 °F - 26.1 °F 85% 30.26 in 10.0 mi Calm Calm - N/A   Clear
3:53 AM 27.0 °F - 23.0 °F 85% 30.25 in 10.0 mi Calm Calm - N/A   Clear
4:53 AM 27.0 °F 23.0 °F 23.0 °F 85% 30.27 in 10.0 mi East 3.5 mph - N/A   Clear
5:53 AM 26.1 °F - 21.9 °F 84% 30.27 in 10.0 mi Calm Calm - N/A   Clear
6:53 AM 24.1 °F - 21.0 °F 88% 30.30 in 10.0 mi Calm Calm - N/A   Clear
7:53 AM 28.0 °F - 26.1 °F 92% 30.33 in 10.0 mi Calm Calm - N/A   Clear
8:53 AM 35.1 °F - 28.9 °F 78% 30.35 in 10.0 mi Calm Calm - N/A   Clear
9:53 AM 45.0 °F 43.5 °F 27.0 °F 49% 30.35 in 10.0 mi NNW 3.5 mph - N/A   Clear
10:53 AM 52.0 °F - 15.1 °F 23% 30.35 in 10.0 mi NNE 6.9 mph - N/A   Clear
11:53 AM 55.0 °F - 17.1 °F 23% 30.33 in 10.0 mi ENE 5.8 mph - N/A   Clear
12:53 PM 57.9 °F - 12.0 °F 16% 30.32 in 10.0 mi ENE 8.1 mph - N/A   Clear
1:53 PM 59.0 °F - 10.0 °F 14% 30.31 in 10.0 mi ENE 4.6 mph - N/A   Clear
2:53 PM 60.1 °F - 16.0 °F 18% 30.29 in 10.0 mi WSW 4.6 mph - N/A   Clear
3:53 PM 62.1 °F - 15.1 °F 16% 30.27 in 10.0 mi West 5.8 mph - N/A   Clear
4:53 PM 62.1 °F - 16.0 °F 17% 30.24 in 10.0 mi Calm Calm - N/A   Clear
5:53 PM 63.0 °F - 12.9 °F 14% 30.22 in 10.0 mi Calm Calm - N/A   Clear
6:53 PM 60.1 °F - 17.1 °F 19% 30.23 in 10.0 mi NNW 3.5 mph - N/A   Clear
7:53 PM 57.0 °F - 19.0 °F 23% 30.22 in 10.0 mi Calm Calm - N/A   Clear
8:53 PM 44.1 °F - 34.0 °F 68% 30.22 in 10.0 mi Calm Calm - N/A   Clear
9:53 PM 41.0 °F - 30.9 °F 67% 30.21 in 10.0 mi Calm Calm - N/A   Clear
10:53 PM 37.0 °F 34.5 °F 30.9 °F 79% 30.21 in 10.0 mi WSW 3.5 mph - N/A   Clear
11:53 PM 37.0 °F - 30.0 °F 76% 30.19 in 10.0 mi Calm Calm - N/A   Clear